{"data":{"norad_id":52288,"epoch":"2026-09-20T01:31:11.234208Z","epoch_age_seconds":97276,"freshness":"FRESH","line1":"1 52288U 22041AD  26263.06332447  .00000267  00000+0  19035-4 0  9998","line2":"2 52288  53.1589 293.4389 0001366  84.2903 275.8255 15.34388911244027","mean_motion":15.34388911,"eccentricity":0.0001366,"inclination_deg":53.1589,"raan_deg":293.4389,"arg_perigee_deg":84.2903,"mean_anomaly_deg":275.8255,"bstar":1.9035e-5,"rev_number":24402,"period_min":93.848436317329,"perigee_km":461.80173597148,"apogee_km":463.67066252952,"semimajor_km":6840.8731992505,"source":"CELESTRAK","updated_at":"2026-09-20T09:00:40.015897Z"}}